www.pogodaiklimat.ru

Погода и климат >> Архив погоды >> Великобритания >> Леучарс


ПОГОДА в Леучарсе

  • Прогноз погоды в Леучарсе
  • Монитор погоды в Леучарсе

АРХИВ ПОГОДЫ в Леучарсе

Время (UTC), дата Ветер
(напр.,м/с)
 
Видим.   Явления Облачность Т
(С)
Тd
(С)
f
(%)
Тe
(С)
Тes
(С)
Комфортность P
(гПа)
Po
(гПа)
Тmin
(С)
Tmax
(С)
R
(мм)
R24
(мм)
S
(см)
22 13.06 СВ 1 6000 м слаб. морось н/о +8.9 +8.0 94 +9 +9 1002.3 1001.1
23 13.06 С 1 40 км в посл. час дождь н/о +8.5 +7.7 95 +8 +8 1002.3 1001.1
00 14.06 СЗ 1 50 км н/о +8.3 +7.9 97 +8 +8 1002.4 1001.2 0.8
01 14.06 З 1 40 км н/о +8.4 +8.1 98 +7 +7 1002.2 1001.0
02 14.06 ЮЗ 3 30 км в посл. час дождь н/о +9.0 +8.0 93 +7 +7 1002.1 1000.9
03 14.06 С 1 15 км н/о +7.9 +6.9 93 +8 +8 1002.2 1001.0
04 14.06 Ю 3 35 км н/о +8.2 +7.8 97 +6 +6 1002.4 1001.1
05 14.06 Ю 3 40 км н/о +8.5 +7.2 92 +6 +6 1002.8 1001.6
06 14.06 Ю 4 35 км слаб. морось с дождем н/о +9.1 +7.0 87 +6 +6 1003.3 1002.1 +7.5 0.8
07 14.06 ЮЗ 6 40 км в посл. час дождь н/о +9.9 +6.6 80 +7 +7 1003.6 1002.4
08 14.06 ЮЗ 6 40 км н/о +11.0 +6.5 74 +8 +8 1004.1 1002.9
09 14.06 ЮЗ 7 35 км н/о +12.6 +7.4 71 +10 +10 1004.8 1003.6
10 14.06 Ю 6 50 км н/о +13.1 +5.9 62 +11 +11 1005.0 1003.8
11 14.06 Ю 5 26 км н/о +14.0 +6.3 60 +13 +13 1005.2 1004.0
12 14.06 ЮВ 6 40 км н/о +12.7 +7.3 70 +10 +10 1005.5 1004.3 0.0
13 14.06 Ю 6 45 км н/о +13.4 +6.9 65 +11 +11 1005.8 1004.6
14 14.06 Ю 6 45 км н/о +13.8 +7.7 67 +12 +12 1006.1 1004.9
15 14.06 ЮВ 6 30 км н/о +14.5 +6.5 59 +13 +13 1006.0 1004.8
16 14.06 ЮВ 5 30 км н/о +12.9 +8.8 76 +11 +11 1006.4 1005.2
17 14.06 ЮВ 5 28 км н/о +12.8 +9.1 78 +11 +11 1007.1 1005.9
18 14.06 ЮВ 5 50 км н/о +13.7 +8.8 72 +12 +12 1007.4 1006.2 +14.6 0.0
19 14.06 Ю 4 35 км н/о +12.6 +9.2 80 +11 +11 1007.4 1006.2
20 14.06 Ю 4 50 км н/о +12.1 +6.1 67 +10 +10 1007.9 1006.7
21 14.06 ЮВ 3 45 км н/о +11.5 +6.7 72 +10 +10 1008.9 1007.6
22 14.06 ЮВ 3 50 км н/о +11.0 +7.9 81 +9 +9 1009.3 1008.1
23 14.06 В 2 35 км н/о +10.1 +9.0 93 +9 +9 1009.3 1008.1
00 15.06 В 2 19 км н/о +10.6 +10.4 99 +9 +9 1009.3 1008.1
01 15.06 ЮВ 4 40 км н/о +11.3 +9.5 89 +9 +9 1009.3 1008.1
02 15.06 В 3 30 км н/о +11.2 +9.5 89 +9 +9 1009.2 1008.0
03 15.06 В 3 26 км н/о +11.3 +10.1 92 +9 +9 1008.9 1007.7
04 15.06 В 4 25 км н/о +11.5 +10.7 95 +9 +9 1008.8 1007.6
05 15.06 ЮВ 3 15 км н/о +11.5 +11.1 97 +10 +10 1008.7 1007.5
06 15.06 В 4 19 км н/о +11.6 +10.9 95 +9 +9 1008.9 1007.7 +8.8
07 15.06 Ю 2 25 км н/о +13.1 +11.3 89 +13 +13 1008.9 1007.7
08 15.06 В 3 35 км н/о +13.3 +11.7 90 +12 +12 1008.8 1007.6
09 15.06 В 4 29 км н/о +11.9 +11.1 95 +10 +10 1009.0 1007.8
10 15.06 В 5 30 км н/о +12.7 +11.2 91 +11 +11 1009.1 1007.9
11 15.06 В 5 20 км н/о +13.2 +11.7 91 +11 +11 1008.8 1007.6
12 15.06 В 5 17 км н/о +13.4 +10.9 85 +11 +11 1009.0 1007.8
13 15.06 В 5 23 км н/о +13.3 +10.4 83 +11 +11 1009.1 1007.9
14 15.06 ЮВ 6 18 км н/о +14.4 +10.7 78 +13 +13 1008.8 1007.6
15 15.06 ЮВ 5 21 км слаб. ливневой дождь н/о +13.9 +11.5 85 +12 +12 1008.7 1007.5
16 15.06 В 4 14 км в посл. час дождь н/о +13.9 +12.0 88 +12 +12 1008.5 1007.3
17 15.06 ЮВ 3 17 км слаб. морось с дождем н/о +14.4 +11.6 83 +13 +13 1008.4 1007.2
18 15.06 Ю 4 28 км в посл. час дождь н/о +15.0 +11.2 78 +14 +14 1008.2 1007.0 +15.1 0.4
19 15.06 Ю 3 40 км н/о +15.2 +11.5 79 +14 +14 1008.1 1006.9
20 15.06 Ю 3 50 км слаб. ливневой дождь н/о +13.9 +8.4 69 +13 +13 1008.1 1006.9
21 15.06 штиль 0 50 км в посл. час дождь н/о +12.8 +8.8 77 +12 +12 1008.5 1007.3
22 15.06 З 1 35 км слаб. дождь н/о +11.8 +9.6 86 +12 +12 1008.7 1007.5
23 15.06 Ю 1 35 км в посл. час дождь н/о +11.6 +9.4 86 +11 +11 1008.7 1007.5
00 16.06 З 4 45 км н/о +10.4 +8.1 86 +8 +8 1008.6 1007.4 0.2
01 16.06 З 3 30 км н/о +9.3 +7.4 88 +7 +7 1008.7 1007.4
02 16.06 ЮЗ 3 40 км н/о +9.1 +7.6 90 +7 +7 1008.6 1007.4
03 16.06 З 1 30 км н/о +7.7 +7.2 97 +8 +8 1008.5 1007.2
04 16.06 СЗ 1 35 км н/о +7.9 +6.9 93 +7 +7 1008.4 1007.2
05 16.06 ЮЗ 1 30 км н/о +9.1 +7.4 89 +9 +9 1008.5 1007.3
06 16.06 З 2 18 км н/о +11.0 +8.2 83 +10 +10 1008.8 1007.6 +6.3 0.2
07 16.06 ЮЗ 2 40 км н/о +11.7 +8.6 81 +11 +11 1009.0 1007.8
08 16.06 ЮЗ 3 25 км н/о +13.2 +8.9 75 +12 +12 1009.2 1008.0
09 16.06 З 4 30 км н/о +14.2 +9.8 75 +13 +13 1009.0 1007.8
10 16.06 З 5 24 км слаб. ливневой дождь н/о +14.1 +8.8 70 +13 +13 1009.2 1008.0
11 16.06 З 1 40 км в посл. час дождь н/о +12.1 +10.2 88 +12 +12 1009.6 1008.4
12 16.06 ЮЗ 4 40 км в посл. час дождь н/о +12.8 +8.3 74 +11 +11 1009.6 1008.4 3
13 16.06 ЮЗ 4 45 км н/о +14.6 +9.0 69 +14 +14 1009.7 1008.5
14 16.06 ЮВ 3 50 км н/о +14.2 +8.9 70 +13 +13 1009.8 1008.6
15 16.06 В 3 27 км в посл. час дождь н/о +13.2 +9.1 76 +12 +12 1010.0 1008.8
16 16.06 В 2 27 км н/о +14.8 +8.4 65 +15 +15 1009.6 1008.4
17 16.06 В 3 30 км слаб. морось с дождем н/о +14.6 +8.0 65 +14 +14 1009.3 1008.1
18 16.06 В 4 30 км слаб. ливневой дождь н/о +13.3 +8.8 74 +12 +12 1009.4 1008.2 +15.8 3
19 16.06 Ю 3 50 км в посл. час дождь н/о +13.5 +8.7 73 +13 +13 1009.0 1007.8
20 16.06 ЮВ 3 35 км н/о +13.0 +9.7 80 +12 +12 1008.7 1007.5
21 16.06 Ю 3 50 км н/о +13.0 +9.2 78 +12 +12 1008.6 1007.4
22 16.06 ЮВ 2 50 км н/о +12.3 +8.8 79 +11 +11 1007.8 1006.6
23 16.06 Ю 5 8000 м ливневой дождь н/о +12.1 +10.1 88 +10 +10 1007.0 1005.8
00 17.06 ЮВ 5 11 км дождь н/о +11.7 +10.6 93 +9 +9 1006.5 1005.3 2
01 17.06 Ю 7 35 км в посл. час дождь н/о +12.0 +10.9 93 +9 +9 1005.7 1004.5
02 17.06 Ю 6 40 км н/о +12.0 +10.7 92 +9 +9 1005.7 1004.5
03 17.06 ЮЗ 5 30 км н/о +11.3 +9.4 88 +9 +9 1006.2 1005.0
04 17.06 ЮЗ 3 29 км н/о +10.7 +9.2 90 +9 +9 1006.4 1005.2
05 17.06 ЮЗ 7 35 км н/о +11.9 +9.2 84 +9 +9 1006.7 1005.5
06 17.06 ЮЗ 7 40 км н/о +12.8 +9.6 81 +10 +10 1007.3 1006.1 +10.7 3
07 17.06 ЮЗ 8 30 км н/о +13.5 +9.8 78 +11 +11 1007.5 1006.3
08 17.06 З 6 30 км н/о +13.7 +9.5 76 +12 +12 1007.9 1006.7
09 17.06 ЮЗ 7 29 км н/о +14.6 +9.8 73 +13 +13 1008.1 1006.9
10 17.06 ЮЗ 4 35 км в посл. час дождь н/о +14.6 +10.3 75 +13 +13 1008.0 1006.8
11 17.06 ЮЗ 6 40 км слаб. ливневой дождь н/о +14.6 +9.3 70 +13 +13 1008.1 1007.0
12 17.06 ЮЗ 8-13
{14}
30 км в посл. час дождь н/о +17.7 +11.2 66 +17 +17 1007.7 1006.5 0.0
13 17.06 ЮЗ 10
{16}
40 км н/о +18.1 +9.8 58 +17 +17 1007.7 1006.5
14 17.06 ЮЗ 11-16
{16}
40 км н/о +18.3 +9.5 56 +17 +17 1007.6 1006.5
15 17.06 ЮЗ 12
{16}
35 км н/о +16.7 +7.2 53 +15 +15 1007.6 1006.4
16 17.06 ЮЗ 10
{15}
20 км слаб. ливневой дождь н/о +15.8 +8.8 63 +14 +14 1007.7 1006.5
17 17.06 З 10-15
{15}
45 км в посл. час дождь н/о +15.3 +9.5 68 +13 +13 1008.2 1007.0
18 17.06 ЮЗ 9
{14}
45 км н/о +15.6 +10.0 69 +14 +14 1008.5 1007.3 +18.7 0.4
19 17.06 ЮЗ 6 35 км н/о +14.8 +9.3 70 +13 +13 1008.8 1007.6
20 17.06 З 6 40 км н/о +14.0 +9.6 75 +12 +12 1009.1 1007.9
21 17.06 З 3 45 км н/о +13.0 +9.1 77 +12 +12 1009.7 1008.5
22 17.06 ЮЗ 3 50 км н/о +11.5 +8.5 82 +10 +10 1010.1 1008.8
23 17.06 ЮЗ 2 45 км н/о +12.3 +9.9 85 +12 +12 1010.2 1009.0
00 18.06 ЮЗ 4 35 км н/о +11.4 +9.8 90 +9 +9 1010.3 1009.1
01 18.06 ЮЗ 4 35 км н/о +12.1 +9.7 85 +10 +10 1010.1 1008.9
02 18.06 ЮЗ 5 40 км в посл. час дождь н/о +11.8 +9.9 88 +9 +9 1009.9 1008.7
03 18.06 ЮЗ 3 30 км н/о +10.3 +8.9 91 +8 +8 1009.7 1008.5
04 18.06 З 3 40 км н/о +10.9 +9.1 89 +9 +9 1009.7 1008.5
05 18.06 Ю 3 40 км н/о +11.2 +9.3 88 +9 +9 1009.4 1008.2
06 18.06 ЮЗ 4 30 км н/о +12.5 +9.6 82 +11 +11 1009.2 1008.0 +10.2 0.0
07 18.06 З 6 40 км н/о +12.9 +9.8 81 +11 +11 1009.1 1007.9
08 18.06 З 9
{13}
30 км н/о +14.3 +9.1 71 +12 +12 1009.1 1007.9
09 18.06 З 9
{14}
40 км н/о +15.4 +8.3 63 +13 +13 1008.9 1007.7
10 18.06 ЮЗ 12
{16}
40 км н/о +17.0 +8.2 56 +15 +15 1008.8 1007.6
11 18.06 З 11
{14}
40 км н/о +16.5 +9.3 62 +15 +15 1009.1 1007.9
12 18.06 З 9
{14}
35 км н/о +16.5 +10.2 66 +15 +15 1009.7 1008.5
13 18.06 З 9
{13}
29 км н/о +16.4 +9.3 63 +15 +15 1009.6 1008.4
14 18.06 З 9
{13}
13 км н/о +17.5 +9.5 59 +16 +16 1009.6 1008.4
15 18.06 З 7 35 км н/о +16.6 +9.3 62 +15 +15 1009.8 1008.6
16 18.06 З 8 45 км н/о +17.4 +8.8 57 +16 +16 1009.4 1008.2
17 18.06 З 9 40 км н/о +17.8 +10.0 60 +17 +17 1009.5 1008.3
18 18.06 З 8 45 км н/о +16.6 +9.4 62 +15 +15 1009.7 1008.5 +18.2
19 18.06 З 5 40 км н/о +16.0 +9.6 66 +15 +15 1009.6 1008.4
20 18.06 ЮЗ 5 40 км н/о +15.6 +8.9 64 +15 +15 1009.7 1008.5
21 18.06 З 3 50 км н/о +13.0 +9.0 77 +12 +12 1009.8 1008.6
22 18.06 З 4 50 км н/о +12.9 +9.5 80 +11 +11 1009.8 1008.6
23 18.06 З 3 50 км н/о +11.8 +8.8 82 +10 +10 1009.7 1008.5
00 19.06 Ю 2 50 км н/о +10.8 +9.1 89 +9 +9 1009.2 1008.0
01 19.06 штиль 0 50 км н/о +9.6 +7.8 89 +9 +9 1009.0 1007.8
02 19.06 З 1 40 км н/о +8.1 +7.2 94 +8 +8 1008.5 1007.3
03 19.06 Ю 1 35 км н/о +10.0 +9.3 95 +9 +9 1008.5 1007.3
04 19.06 Ю 2 16 км н/о +9.8 +8.8 93 +8 +8 1008.1 1006.9
05 19.06 Ю 2 15 км н/о +10.5 +9.4 93 +9 +9 1007.8 1006.6
06 19.06 З 1 18 км н/о +11.7 +10.0 89 +11 +11 1007.8 1006.6 +8.0
07 19.06 З 1 17 км н/о +12.3 +10.3 88 +13 +13 1007.6 1006.4
08 19.06 ЮЗ 3 35 км н/о +15.0 +10.9 76 +14 +14 1007.0 1005.8
09 19.06 ЮЗ 4 50 км н/о +16.1 +10.6 70 +16 +16 1006.5 1005.3
10 19.06 З 5 40 км н/о +15.2 +10.1 72 +14 +14 1006.5 1005.3
11 19.06 З 7 35 км н/о +17.6 +9.2 58 +17 +17 1006.0 1004.9
12 19.06 ЮЗ 6 20 км н/о +18.8 +9.1 53 +19 +19 1005.8 1004.7
13 19.06 ЮЗ 6 24 км н/о +19.9 +9.6 51 +21 +21 комфорт 1005.6 1004.4
14 19.06 З 8 30 км н/о +19.4 +6.8 44 +19 +19 1005.3 1004.2
15 19.06 З 8 50 км н/о +19.0 +7.1 46 +19 +19 1005.0 1003.9
16 19.06 З 7 40 км н/о +18.9 +8.3 50 +19 +19 1004.8 1003.7
17 19.06 З 7 50 км н/о +18.1 +8.4 53 +17 +17 1004.6 1003.5
18 19.06 З 7 50 км н/о +17.0 +7.4 53 +16 +16 1004.5 1003.4 +19.9
19 19.06 З 5 35 км н/о +17.0 +8.5 57 +16 +16 1004.6 1003.4
20 19.06 З 5 50 км н/о +14.7 +8.6 67 +13 +13 1004.9 1003.7
21 19.06 З 3 50 км н/о +12.6 +8.5 76 +11 +11 1005.1 1003.9
22 19.06 З 4 50 км н/о +12.8 +8.8 77 +11 +11 1005.1 1003.9
23 19.06 З 4 50 км слаб. морось с дождем н/о +11.8 +8.8 82 +10 +10 1004.9 1003.7
00 20.06 ЮЗ 2 50 км в посл. час дождь н/о +11.5 +8.5 82 +10 +10 1004.7 1003.5 0.0
01 20.06 ЮЗ 2 50 км н/о +11.4 +9.2 86 +10 +10 1004.5 1003.3
02 20.06 ЮЗ 2 50 км в посл. час дождь н/о +11.4 +9.9 90 +10 +10 1004.1 1002.9
03 20.06 З 3 50 км в посл. час дождь н/о +10.1 +8.9 92 +8 +8 1004.2 1003.0
04 20.06 З 3 26 км дождь н/о +10.0 +9.1 94 +8 +8 1004.3 1003.1
05 20.06 З 4 50 км в посл. час дождь н/о +9.5 +8.4 93 +7 +7 1004.3 1003.1
06 20.06 З 6 29 км н/о +10.3 +9.3 94 +7 +7 1004.4 1003.2 +9.2 1
07 20.06 З 7 35 км н/о +11.8 +8.5 80 +9 +9 1004.5 1003.3
08 20.06 З 8 40 км н/о +13.2 +8.7 74 +11 +11 1004.7 1003.5
09 20.06 З 9 40 км н/о +14.1 +8.0 67 +12 +12 1004.8 1003.6
10 20.06 З 9 35 км н/о +15.3 +7.8 61 +13 +13 1004.9 1003.7
11 20.06 З 9
{14}
45 км н/о +14.6 +7.4 62 +12 +12 1005.1 1003.9
12 20.06 З 11
{15}
35 км н/о +16.2 +8.2 59 +14 +14 1005.2 1004.0
13 20.06 З 10
{15}
30 км н/о +14.9 +8.2 64 +12 +12 1005.6 1004.4
14 20.06 З 10
{14}
30 км н/о +16.0 +7.7 58 +14 +14 1005.6 1004.4
15 20.06 З 9
{14}
28 км н/о +15.8 +7.5 58 +14 +14 1005.9 1004.7
16 20.06 З 9
{14}
27 км в посл. час дождь н/о +15.9 +8.8 63 +14 +14 1006.6 1005.4
17 20.06 З 8
{13}
35 км н/о +15.3 +7.3 59 +13 +13 1006.9 1005.8
18 20.06 З 9
{13}
40 км н/о +15.4 +6.3 55 +13 +13 1007.3 1006.1 +17.3 0.0
19 20.06 З 8 30 км н/о +14.8 +5.6 54 +13 +13 1007.9 1006.7
20 20.06 З 5 50 км н/о +12.5 +6.3 66 +10 +10 1008.5 1007.3

 

Местоположение метеостанции Леучарс (Великобритания): широта 56.40 долгота -2.87 высота над уровнем моря 10 м.

В архиве по умолчанию представлена погода в Леучарсе за последнюю неделю. Архивные данные за месяц целиком и за предыдущие месяцы, начиная с января 2011 года, Вы можете получить, выбрав интересующий диапазон дат из раскрывающегося списка и нажав кнопку "Ввод!".


*Определитесь, кто Вы:
робот инопланетянин человек

Внимание! Время в таблицах - всемирное. Для получения местного времени необходимо прибавить поправку, которая равна 0 ч.

Смотрите также архив погоды в соседних городах и на ближайших метеорологических станциях:

Погода в Страталлане (Великобритания) (54 км)
Погода в Эдинбурге (Великобритания) (60 км)
Погода в Инвербери (Великобритания) (62 км)
Погода на Кэрнуэлле (Великобритания) (63 км)
Погода в Абойне (Великобритания) (76 км)
Погода в Чартерхолле (Великобритания) (84 км)
Погода в Гленогле (Великобритания) (89 км)
Погода на Кайрнгорме (Великобритания) (93 км)
Погода в Абердине (Великобритания) (97 км)
Погода в Друмалбине (Великобритания) (102 км)

Пояснения к столбцам:

Ветер - указаны скорость ветра в м/с - средняя за 10 мин, порывы в срок и между сроками (в фигурных скобках) и направление, откуда дует ветер: С - северный, СВ - северо-восточный, В - восточный, ЮВ - юго-восточный, Ю - южный, ЮЗ - юго-западный, З - западный, СЗ - северо-западный.
Видимость - горизонтальная дальность видимости в метрах или километрах. При видимости от 1 до 10 км при отсутствии осадков обычно наблюдается дымка, при ухудшении видимости до 1 км и менее - туман. В сухую погоду видимость может ухудшаться дымом, пылью или мглою.
Явления - указаны атмосферные явления, наблюдавшиеся в срок или в последний час перед сроком; фигурными скобками обозначены явления, наблюдавшиеся между сроками (за 1-3 часа до срока); квадратными скобками обозначены град или гололедные отложения с указанием их диаметра в мм.
Облачность - указаны через наклонную черту общая и нижняя облачность в баллах и высота нижней границы облаков в метрах; квадратными скобками обозначены формы облаков: Ci - перистые, Cs - перисто-слоистые, Cc - перисто-кучевые, Ac - высококучевые, As - высокослоистые, Sc - слоисто-кучевые, Ns - слоисто-дождевые, Cu - кучевые, Cb - кучево-дождевые. Подробнее классификацию облаков см. в Атласе облаков (PDF).
T - Температура воздуха - температура, измеренная на высоте 2 м над землей.
Td - Температура точки росы - температура, при понижении до которой содержащийся в воздухе водяной пар достигнет насыщения.
f - Относительная влажность воздуха - влажноcть воздуха, измеренная на высоте 2 м над землей.
Te - Эффективная температура - температура, которую ощущает одетый по сезону человек в тени. Характеристика душности погоды. При расчете учитывается влияние влажности воздуха и скорости ветра на теплоощущения человека.
Tes - Эффективная температура на солнце - температура, которую ощущает человек, с поправкой на солнечный нагрев. Характеристика знойности погоды. Зависит от высоты солнца над горизонтом, облачности и скорости ветра. Ночью, в пасмурную погоду, а также при ветре 12 м/с и более поправка равна нулю.
P - Атмосферное давление - приведенное к уровню моря атмосферное давление.
Po - Атмосферное давление - измеренное на уровне метеостанции атмосферное давление.
Tmin - Минимальная температура - минимум температуры воздуха на высоте 2 м над землей.
Tmax - Максимальная температура - максимум температуры воздуха на высоте 2 м над землей.
R - Количество осадков - Количество выпавших осадков за период времени, мм. При наведении курсора мыши на число - период времени, за который выпало указанное количество осадков.
R24 - Количество осадков - Количество выпавших осадков за 24 часа, мм.
S - Снежный покров - Высота снежного покрова, см. При наведении курсора мыши на число - состояние снежного покрова и степень покрытия местности в баллах.